Location: Skalnate Pleso
(49.1889°N, 20.2450°E)
Time: 16:31:24
(UTC+02:00)

COSMOS 2428 - Pass Details

Date: 28 February 2020
Orbit: 846 x 856 km, 70.9° (Epoch: 07 April)

Event Time Altitude Azimuth Distance (km) Brightness Sun altitude
Exits shadow 03:16:33 12° 337° (NNW) 2,391 5.1 -30.9°
Drops below altitude 10° 03:18:18 10° 355° (N) 2,500 5.4 -30.6°
Sets 03:22:50 0° 28° (NNE) 3,438 6.6 -30.0°
